| time (UTC) | temp F | wind direction | speed MPH | gust MPH | rain 1hr in | rain 24hr in | rain mn in | humidity % | barometer mb |
| 20260506051209 | 41 | 181 | 0.0 | 0.0 | 0.00 | 0.00 | 0.00 | 61 | 1012.7 |
| 20260506050707 | 41 | 181 | 0.0 | 0.0 | 0.00 | 0.00 | 0.00 | 60 | 1012.8 |
| 20260506050204 | 41 | 181 | 0.0 | 0.0 | 0.00 | 0.00 | 0.00 | 59 | 1012.7 |
| 20260506044655 | 42 | 181 | 0.0 | 0.0 | 0.00 | 0.00 | 0.00 | 59 | 1012.7 |
| 20260506044151 | 42 | 181 | 0.0 | 0.0 | 0.00 | 0.00 | 0.00 | 58 | 1012.6 |
| 20260506043649 | 43 | 181 | 0.0 | 0.0 | 0.00 | 0.00 | 0.00 | 56 | 1012.6 |
| 20260506043147 | 43 | 181 | 0.0 | 0.0 | 0.00 | 0.00 | 0.00 | 54 | 1012.5 |
| 20260506042646 | 44 | 181 | 0.0 | 0.0 | 0.00 | 0.00 | 0.00 | 53 | 1012.6 |
| 20260506042143 | 44 | 181 | 0.0 | 0.0 | 0.00 | 0.00 | 0.00 | 50 | 1012.5 |
| 20260506041641 | 45 | 181 | 0.0 | 0.0 | 0.00 | 0.00 | 0.00 | 50 | 1012.4 |
| 20260506041137 | 45 | 181 | 0.0 | 0.0 | 0.00 | 0.00 | 0.00 | 51 | 1012.4 |
| 20260506040635 | 45 | 181 | 0.0 | 0.0 | 0.00 | 0.00 | 0.00 | 49 | 1012.2 |
| 20260506040132 | 45 | 181 | 0.0 | 0.0 | 0.00 | 0.00 | 0.00 | 49 | 1012.2 |
| 20260506035629 | 46 | 181 | 0.0 | 0.0 | 0.00 | 0.00 | 0.00 | 49 | 1012.2 |
| 20260506035125 | 46 | 181 | 0.0 | 0.0 | 0.00 | 0.00 | 0.00 | 48 | 1012.2 |
| 20260506034623 | 46 | 181 | 0.0 | 0.0 | 0.00 | 0.00 | 0.00 | 47 | 1012.3 |
| 20260506034120 | 46 | 181 | 0.0 | 0.0 | 0.00 | 0.00 | 0.00 | 47 | 1012.1 |
| 20260506033617 | 46 | 181 | 0.0 | 0.0 | 0.00 | 0.00 | 0.00 | 46 | 1012.2 |
| 20260506033114 | 46 | 181 | 0.0 | 0.0 | 0.00 | 0.00 | 0.00 | 46 | 1012.2 |
| 20260506032612 | 47 | 181 | 0.0 | 0.0 | 0.00 | 0.00 | 0.00 | 45 | 1012.3 |
| 20260506032108 | 47 | 181 | 0.0 | 0.0 | 0.00 | 0.00 | 0.00 | 45 | 1012.2 |
| 20260506031605 | 47 | 181 | 0.0 | 0.0 | 0.00 | 0.00 | 0.00 | 45 | 1012.2 |
| 20260506031102 | 47 | 181 | 0.0 | 0.0 | 0.00 | 0.00 | 0.00 | 45 | 1012.3 |
| 20260506030601 | 47 | 181 | 0.0 | 0.0 | 0.00 | 0.00 | 0.00 | 46 | 1012.0 |
| 20260506030058 | 47 | 181 | 0.0 | 0.0 | 0.00 | 0.00 | 0.00 | 45 | 1012.0 |
| 20260506025554 | 47 | 181 | 0.0 | 0.0 | 0.00 | 0.00 | 0.00 | 45 | 1012.2 |
| 20260506025050 | 48 | 181 | 0.0 | 0.0 | 0.00 | 0.00 | 0.00 | 45 | 1012.0 |
| 20260506024547 | 48 | 181 | 0.0 | 0.0 | 0.00 | 0.00 | 0.00 | 45 | 1012.0 |
| 20260506024044 | 48 | 181 | 0.0 | 0.0 | 0.00 | 0.00 | 0.00 | 44 | 1012.0 |
| 20260506023539 | 48 | 181 | 0.0 | 0.0 | 0.00 | 0.00 | 0.00 | 44 | 1011.8 |
| 20260506023037 | 48 | 181 | 0.0 | 0.0 | 0.00 | 0.00 | 0.00 | 43 | 1011.7 |
| 20260506022534 | 49 | 181 | 0.0 | 0.0 | 0.00 | 0.00 | 0.00 | 44 | 1011.7 |
| 20260506022027 | 49 | 181 | 0.0 | 0.0 | 0.00 | 0.00 | 0.00 | 44 | 1011.3 |
| 20260506021524 | 49 | 181 | 0.0 | 0.0 | 0.00 | 0.00 | 0.00 | 43 | 1011.5 |
| 20260506021021 | 49 | 181 | 0.0 | 0.0 | 0.00 | 0.00 | 0.00 | 41 | 1011.2 |
| 20260506020518 | 50 | 181 | 0.0 | 1.0 | 0.00 | 0.00 | 0.00 | 40 | 1011.1 |
| 20260506020016 | 50 | 181 | 0.0 | 0.0 | 0.00 | 0.00 | 0.00 | 41 | 1011.3 |
| 20260506015513 | 50 | 181 | 0.0 | 0.0 | 0.00 | 0.00 | 0.00 | 41 | 1011.1 |
| 20260506015010 | 50 | 181 | 0.0 | 0.0 | 0.00 | 0.00 | 0.00 | 41 | 1010.9 |
| 20260506014508 | 50 | 181 | 0.0 | 0.0 | 0.00 | 0.00 | 0.00 | 40 | 1010.7 |
| 20260506014003 | 50 | 181 | 0.0 | 0.0 | 0.00 | 0.00 | 0.00 | 40 | 1010.6 |
| 20260506013501 | 51 | 181 | 0.0 | 0.0 | 0.00 | 0.00 | 0.00 | 39 | 1010.6 |
| 20260506012957 | 51 | 181 | 0.0 | 0.0 | 0.00 | 0.00 | 0.00 | 39 | 1010.3 |
| 20260506012454 | 51 | 181 | 0.0 | 0.0 | 0.00 | 0.00 | 0.00 | 39 | 1010.3 |
| 20260506011951 | 51 | 181 | 0.0 | 0.0 | 0.00 | 0.00 | 0.00 | 39 | 1010.3 |
| 20260506011448 | 51 | 181 | 0.0 | 0.0 | 0.00 | 0.00 | 0.00 | 39 | 1010.1 |
| 20260506010944 | 51 | 181 | 0.0 | 0.0 | 0.00 | 0.00 | 0.00 | 39 | 1010.2 |
| 20260506010444 | 51 | 181 | 0.0 | 0.0 | 0.00 | 0.00 | 0.00 | 38 | 1010.2 |
| 20260506005939 | 52 | 182 | 0.0 | 0.0 | 0.00 | 0.00 | 0.00 | 38 | 1010.2 |
| 20260506005437 | 52 | 182 | 0.0 | 0.0 | 0.00 | 0.00 | 0.00 | 37 | 1010.0 |
| 20260506004932 | 52 | 182 | 0.0 | 1.0 | 0.00 | 0.00 | 0.00 | 37 | 1010.1 |
| 20260506004430 | 52 | 182 | 0.0 | 0.0 | 0.00 | 0.00 | 0.00 | 36 | 1010.1 |
| 20260506003925 | 53 | 182 | 0.0 | 0.0 | 0.00 | 0.00 | 0.00 | 37 | 1009.9 |
| 20260506003422 | 53 | 182 | 1.0 | 1.0 | 0.00 | 0.00 | 0.00 | 36 | 1009.9 |
| 20260506002919 | 53 | 182 | 0.0 | 0.0 | 0.00 | 0.00 | 0.00 | 38 | 1009.7 |
| 20260506002415 | 53 | 182 | 0.0 | 0.0 | 0.00 | 0.00 | 0.00 | 36 | 1009.7 |
| 20260506001910 | 53 | 182 | 1.0 | 1.0 | 0.00 | 0.00 | 0.00 | 35 | 1009.7 |
| 20260506001408 | 54 | 182 | 1.0 | 2.0 | 0.00 | 0.00 | 0.00 | 35 | 1009.7 |
| 20260506000905 | 54 | 182 | 0.0 | 0.0 | 0.00 | 0.00 | 0.00 | 35 | 1009.5 |
| 20260506000403 | 54 | 182 | 0.0 | 0.0 | 0.00 | 0.00 | 0.00 | 36 | 1009.6 |
| 20260505235859 | 54 | 182 | 0.0 | 0.0 | 0.00 | 0.00 | 0.00 | 35 | 1009.5 |
| 20260505235357 | 54 | 182 | 0.0 | 0.0 | 0.00 | 0.00 | 0.00 | 34 | 1009.5 |
| 20260505234853 | 55 | 182 | 0.0 | 0.0 | 0.00 | 0.00 | 0.00 | 35 | 1009.5 |
| 20260505234351 | 55 | 182 | 0.0 | 0.0 | 0.00 | 0.00 | 0.00 | 34 | 1009.5 |
| 20260505233848 | 55 | 182 | 0.0 | 0.0 | 0.00 | 0.00 | 0.00 | 34 | 1009.5 |
| 20260505233346 | 55 | 182 | 1.0 | 1.0 | 0.00 | 0.00 | 0.00 | 33 | 1009.4 |
| 20260505232843 | 55 | 181 | 1.0 | 1.0 | 0.00 | 0.00 | 0.00 | 33 | 1009.5 |
| 20260505232341 | 56 | 181 | 0.0 | 0.0 | 0.00 | 0.00 | 0.00 | 34 | 1009.5 |
| 20260505231837 | 56 | 181 | 0.0 | 1.0 | 0.00 | 0.00 | 0.00 | 32 | 1009.5 |
| 20260505231335 | 56 | 181 | 0.0 | 0.0 | 0.00 | 0.00 | 0.00 | 33 | 1009.3 |
| 20260505230833 | 56 | 181 | 0.0 | 0.0 | 0.00 | 0.00 | 0.00 | 36 | 1009.5 |
| 20260505230330 | 56 | 181 | 0.0 | 0.0 | 0.00 | 0.00 | 0.00 | 34 | 1009.7 |
| 20260505225826 | 56 | 181 | 0.0 | 0.0 | 0.00 | 0.00 | 0.00 | 34 | 1009.4 |
| 20260505225324 | 56 | 181 | 1.0 | 1.0 | 0.00 | 0.00 | 0.00 | 32 | 1009.6 |
| 20260505224819 | 56 | 181 | 0.0 | 0.0 | 0.00 | 0.00 | 0.00 | 34 | 1009.5 |
| 20260505224317 | 57 | 181 | 1.0 | 2.0 | 0.00 | 0.00 | 0.00 | 33 | 1009.4 |
| 20260505223814 | 57 | 181 | 1.0 | 1.0 | 0.00 | 0.00 | 0.00 | 32 | 1009.5 |
| 20260505223311 | 57 | 181 | 1.0 | 1.0 | 0.00 | 0.00 | 0.00 | 32 | 1009.4 |
| 20260505222801 | 56 | 181 | 0.0 | 0.0 | 0.00 | 0.00 | 0.00 | 33 | 1009.4 |
| 20260505222258 | 56 | 181 | 0.0 | 1.0 | 0.00 | 0.00 | 0.00 | 32 | 1009.4 |
| 20260505221755 | 57 | 181 | 1.0 | 2.0 | 0.00 | 0.00 | 0.00 | 32 | 1009.2 |
| 20260505221251 | 57 | 181 | 1.0 | 1.0 | 0.00 | 0.00 | 0.00 | 33 | 1009.2 |
| 20260505220748 | 57 | 182 | 2.0 | 2.0 | 0.00 | 0.00 | 0.00 | 32 | 1009.1 |
| 20260505220245 | 57 | 181 | 1.0 | 1.0 | 0.00 | 0.00 | 0.00 | 33 | 1009.0 |
| 20260505215744 | 57 | 181 | 0.0 | 1.0 | 0.00 | 0.00 | 0.00 | 33 | 1009.2 |
| 20260505215241 | 58 | 181 | 1.0 | 1.0 | 0.00 | 0.00 | 0.00 | 31 | 1009.2 |
| 20260505214738 | 58 | 181 | 1.0 | 1.0 | 0.00 | 0.00 | 0.00 | 32 | 1009.1 |
| 20260505214236 | 58 | 181 | 0.0 | 0.0 | 0.00 | 0.00 | 0.00 | 35 | 1009.2 |
| 20260505213733 | 58 | 181 | 0.0 | 0.0 | 0.00 | 0.00 | 0.00 | 33 | 1009.4 |
| 20260505213230 | 58 | 181 | 2.0 | 2.0 | 0.00 | 0.00 | 0.00 | 32 | 1009.2 |
| 20260505212726 | 58 | 181 | 1.0 | 1.0 | 0.00 | 0.00 | 0.00 | 35 | 1009.3 |
| 20260505212224 | 58 | 181 | 1.0 | 2.0 | 0.00 | 0.00 | 0.00 | 32 | 1009.2 |
| 20260505211720 | 57 | 181 | 0.0 | 0.0 | 0.00 | 0.00 | 0.00 | 35 | 1009.1 |
| 20260505211218 | 57 | 181 | 0.0 | 1.0 | 0.00 | 0.00 | 0.00 | 36 | 1009.2 |
| 20260505210714 | 58 | 181 | 2.0 | 3.0 | 0.00 | 0.00 | 0.00 | 32 | 1009.3 |
| 20260505210211 | 57 | 181 | 0.0 | 1.0 | 0.00 | 0.00 | 0.00 | 33 | 1009.2 |
| 20260505205708 | 57 | 181 | 0.0 | 0.0 | 0.00 | 0.00 | 0.00 | 35 | 1009.3 |
| 20260505205207 | 57 | 181 | 0.0 | 0.0 | 0.00 | 0.00 | 0.00 | 35 | 1009.4 |
| 20260505204702 | 58 | 181 | 1.0 | 2.0 | 0.00 | 0.00 | 0.00 | 34 | 1009.3 |
| 20260505204200 | 57 | 181 | 0.0 | 1.0 | 0.00 | 0.00 | 0.00 | 34 | 1009.5 |
| 20260505203657 | 57 | 181 | 1.0 | 2.0 | 0.00 | 0.00 | 0.00 | 34 | 1009.4 |
| 20260505203154 | 57 | 181 | 1.0 | 3.0 | 0.00 | 0.00 | 0.00 | 35 | 1009.5 |
| 20260505202649 | 57 | 181 | 1.0 | 2.0 | 0.00 | 0.00 | 0.00 | 37 | 1009.5 |
| 20260505202146 | 56 | 181 | 0.0 | 0.0 | 0.00 | 0.00 | 0.00 | 35 | 1009.6 |
| 20260505201642 | 56 | 181 | 1.0 | 1.0 | 0.00 | 0.00 | 0.00 | 35 | 1009.6 |
| 20260505201141 | 56 | 181 | 0.0 | 1.0 | 0.00 | 0.00 | 0.00 | 34 | 1009.7 |
| 20260505200638 | 57 | 181 | 2.0 | 3.0 | 0.00 | 0.00 | 0.00 | 34 | 1009.8 |
| 20260505200135 | 57 | 181 | 1.0 | 1.0 | 0.00 | 0.00 | 0.00 | 36 | 1009.8 |
| 20260505195631 | 58 | 181 | 1.0 | 2.0 | 0.00 | 0.00 | 0.00 | 33 | 1009.8 |
| 20260505195128 | 57 | 181 | 2.0 | 2.0 | 0.00 | 0.00 | 0.00 | 34 | 1009.8 |
| 20260505194620 | 56 | 181 | 0.0 | 0.0 | 0.00 | 0.00 | 0.00 | 37 | 1009.9 |
| 20260505194116 | 56 | 181 | 1.0 | 2.0 | 0.00 | 0.00 | 0.00 | 33 | 1009.8 |
| 20260505193613 | 56 | 181 | 1.0 | 2.0 | 0.00 | 0.00 | 0.00 | 34 | 1009.9 |
| 20260505193110 | 57 | 181 | 1.0 | 1.0 | 0.00 | 0.00 | 0.00 | 33 | 1010.0 |
| 20260505192609 | 57 | 181 | 1.0 | 2.0 | 0.00 | 0.00 | 0.00 | 34 | 1009.7 |
| 20260505192105 | 57 | 181 | 0.0 | 1.0 | 0.00 | 0.00 | 0.00 | 34 | 1009.8 |
| 20260505191603 | 56 | 181 | 1.0 | 1.0 | 0.00 | 0.00 | 0.00 | 33 | 1009.8 |
| 20260505191101 | 57 | 181 | 0.0 | 1.0 | 0.00 | 0.00 | 0.00 | 35 | 1010.0 |
| 20260505190556 | 57 | 181 | 1.0 | 1.0 | 0.00 | 0.00 | 0.00 | 35 | 1009.7 |
| 20260505190052 | 57 | 181 | 2.0 | 2.0 | 0.00 | 0.00 | 0.00 | 35 | 1009.7 |
| 20260505185549 | 57 | 181 | 1.0 | 2.0 | 0.00 | 0.00 | 0.00 | 36 | 1009.5 |
| 20260505185046 | 57 | 181 | 1.0 | 1.0 | 0.00 | 0.00 | 0.00 | 34 | 1009.8 |
| 20260505184542 | 56 | 181 | 1.0 | 2.0 | 0.00 | 0.00 | 0.00 | 36 | 1009.6 |
| 20260505184039 | 57 | 181 | 1.0 | 1.0 | 0.00 | 0.00 | 0.00 | 35 | 1009.7 |
| 20260505183536 | 56 | 181 | 1.0 | 2.0 | 0.00 | 0.00 | 0.00 | 36 | 1009.5 |
| 20260505183033 | 56 | 181 | 2.0 | 3.0 | 0.00 | 0.00 | 0.00 | 36 | 1009.6 |
| 20260505182530 | 56 | 181 | 1.0 | 2.0 | 0.00 | 0.00 | 0.00 | 37 | 1009.4 |
| 20260505182026 | 56 | 181 | 0.0 | 0.0 | 0.00 | 0.00 | 0.00 | 37 | 1009.3 |
| 20260505181523 | 56 | 181 | 0.0 | 1.0 | 0.00 | 0.00 | 0.00 | 37 | 1009.4 |
| 20260505181020 | 55 | 181 | 0.0 | 1.0 | 0.00 | 0.00 | 0.00 | 41 | 1009.4 |
| 20260505180510 | 55 | 181 | 2.0 | 3.0 | 0.00 | 0.00 | 0.00 | 38 | 1009.6 |
| 20260505180009 | 55 | 181 | 0.0 | 0.0 | 0.00 | 0.00 | 0.00 | 37 | 1009.4 |
| 20260505175503 | 55 | 181 | 2.0 | 4.0 | 0.00 | 0.00 | 0.00 | 37 | 1009.4 |
| 20260505175000 | 55 | 181 | 2.0 | 3.0 | 0.00 | 0.00 | 0.00 | 37 | 1009.3 |
| 20260505174457 | 55 | 181 | 1.0 | 1.0 | 0.00 | 0.00 | 0.00 | 37 | 1009.5 |
| 20260505173953 | 55 | 181 | 1.0 | 1.0 | 0.00 | 0.00 | 0.00 | 36 | 1009.7 |
| 20260505173449 | 55 | 181 | 2.0 | 3.0 | 0.00 | 0.00 | 0.00 | 35 | 1009.6 |
| 20260505172946 | 55 | 181 | 1.0 | 2.0 | 0.00 | 0.00 | 0.00 | 34 | 1009.4 |
| 20260505172445 | 55 | 181 | 2.0 | 2.0 | 0.00 | 0.00 | 0.00 | 34 | 1009.5 |
| 20260505171944 | 56 | 181 | 1.0 | 2.0 | 0.00 | 0.00 | 0.00 | 34 | 1009.4 |
| 20260505171441 | 55 | 181 | 0.0 | 0.0 | 0.00 | 0.00 | 0.00 | 39 | 1009.7 |
| 20260505170938 | 55 | 181 | 1.0 | 2.0 | 0.00 | 0.00 | 0.00 | 34 | 1009.6 |
| 20260505170435 | 55 | 181 | 1.0 | 2.0 | 0.00 | 0.00 | 0.00 | 34 | 1009.1 |
| 20260505165930 | 55 | 181 | 1.0 | 1.0 | 0.00 | 0.00 | 0.00 | 38 | 1009.2 |
| 20260505165426 | 55 | 181 | 2.0 | 2.0 | 0.00 | 0.00 | 0.00 | 38 | 1009.1 |
| 20260505164921 | 55 | 181 | 1.0 | 1.0 | 0.00 | 0.00 | 0.00 | 38 | 1009.1 |
| 20260505164418 | 55 | 181 | 1.0 | 1.0 | 0.00 | 0.00 | 0.00 | 41 | 1009.0 |
| 20260505163916 | 55 | 181 | 0.0 | 1.0 | 0.00 | 0.00 | 0.00 | 41 | 1009.3 |
| 20260505163416 | 55 | 181 | 0.0 | 0.0 | 0.00 | 0.00 | 0.00 | 43 | 1009.3 |
| 20260505162914 | 55 | 181 | 1.0 | 1.0 | 0.00 | 0.00 | 0.00 | 43 | 1009.4 |
| 20260505162409 | 56 | 181 | 2.0 | 2.0 | 0.00 | 0.00 | 0.00 | 43 | 1009.3 |
| 20260505161906 | 55 | 181 | 0.0 | 0.0 | 0.00 | 0.00 | 0.00 | 41 | 1009.4 |
| 20260505161403 | 55 | 181 | 1.0 | 1.0 | 0.00 | 0.00 | 0.00 | 42 | 1009.3 |
| 20260505160900 | 55 | 181 | 1.0 | 1.0 | 0.00 | 0.00 | 0.00 | 41 | 1009.4 |
| 20260505160358 | 55 | 181 | 0.0 | 1.0 | 0.00 | 0.00 | 0.00 | 40 | 1009.4 |
| 20260505153337 | 55 | 180 | 0.0 | 0.0 | 0.00 | 0.00 | 0.00 | 38 | 1009.2 |
| 20260505152834 | 56 | 180 | 1.0 | 2.0 | 0.00 | 0.00 | 0.00 | 38 | 1009.3 |
| 20260505152331 | 56 | 181 | 0.0 | 0.0 | 0.00 | 0.00 | 0.00 | 38 | 1009.4 |
| 20260505151826 | 55 | 181 | 0.0 | 0.0 | 0.00 | 0.00 | 0.00 | 39 | 1009.3 |
| 20260505151323 | 56 | 181 | 0.0 | 1.0 | 0.00 | 0.00 | 0.00 | 41 | 1009.3 |
| 20260505150820 | 57 | 181 | 1.0 | 1.0 | 0.00 | 0.00 | 0.00 | 38 | 1009.3 |
| 20260505150317 | 59 | 181 | 1.0 | 1.0 | 0.00 | 0.00 | 0.00 | 35 | 1009.1 |
| 20260505140246 | 55 | 180 | 1.0 | 2.0 | 0.00 | 0.00 | 0.00 | 39 | 1009.8 |
| 20260505130210 | 48 | 181 | 1.0 | 1.0 | 0.00 | 0.00 | 0.00 | 50 | 1009.7 |
| 20260505124700 | 48 | 181 | 0.0 | 0.0 | 0.00 | 0.00 | 0.00 | 53 | 1009.7 |
| 20260505124157 | 48 | 181 | 0.0 | 0.0 | 0.00 | 0.00 | 0.00 | 53 | 1009.2 |
| 20260505123653 | 48 | 181 | 0.0 | 0.0 | 0.00 | 0.00 | 0.00 | 51 | 1009.0 |
| 20260505123150 | 48 | 181 | 0.0 | 0.0 | 0.00 | 0.00 | 0.00 | 51 | 1009.3 |
| 20260505122646 | 47 | 181 | 0.0 | 0.0 | 0.00 | 0.00 | 0.00 | 54 | 1009.7 |
| 20260505122143 | 47 | 181 | 0.0 | 0.0 | 0.00 | 0.00 | 0.00 | 55 | 1010.1 |
| 20260505121640 | 47 | 181 | 0.0 | 0.0 | 0.00 | 0.00 | 0.00 | 56 | 1010.0 |
| 20260505121137 | 47 | 181 | 0.0 | 0.0 | 0.00 | 0.00 | 0.00 | 56 | 1009.9 |
| 20260505120633 | 46 | 181 | 0.0 | 0.0 | 0.00 | 0.00 | 0.00 | 54 | 1009.5 |
| 20260505120129 | 46 | 181 | 0.0 | 0.0 | 0.00 | 0.00 | 0.00 | 53 | 1009.1 |
| 20260505115623 | 46 | 181 | 0.0 | 0.0 | 0.00 | 0.00 | 0.00 | 54 | 1008.9 |
| 20260505115121 | 45 | 181 | 0.0 | 0.0 | 0.00 | 0.00 | 0.00 | 54 | 1008.4 |
| 20260505114618 | 45 | 181 | 0.0 | 0.0 | 0.00 | 0.00 | 0.00 | 55 | 1008.4 |
| 20260505114114 | 44 | 181 | 0.0 | 0.0 | 0.00 | 0.00 | 0.00 | 54 | 1008.4 |
| 20260505113611 | 44 | 181 | 0.0 | 0.0 | 0.00 | 0.00 | 0.00 | 55 | 1008.0 |
| 20260505113107 | 44 | 182 | 0.0 | 0.0 | 0.00 | 0.00 | 0.00 | 57 | 1008.0 |
| 20260505112604 | 44 | 182 | 0.0 | 0.0 | 0.00 | 0.00 | 0.00 | 56 | 1008.2 |
| 20260505112102 | 44 | 182 | 0.0 | 0.0 | 0.00 | 0.00 | 0.00 | 57 | 1008.2 |
| 20260505111601 | 44 | 182 | 0.0 | 0.0 | 0.00 | 0.00 | 0.00 | 56 | 1008.5 |
| 20260505111057 | 44 | 182 | 0.0 | 0.0 | 0.00 | 0.00 | 0.00 | 57 | 1008.5 |
| 20260505110554 | 44 | 182 | 0.0 | 0.0 | 0.00 | 0.00 | 0.00 | 55 | 1008.6 |
| 20260505102027 | 46 | 182 | 0.0 | 0.0 | 0.00 | 0.00 | 0.00 | 51 | 1007.7 |
| 20260505101525 | 46 | 182 | 0.0 | 0.0 | 0.00 | 0.00 | 0.00 | 49 | 1007.6 |
| 20260505101021 | 46 | 182 | 0.0 | 0.0 | 0.00 | 0.00 | 0.00 | 49 | 1007.6 |
| 20260505100518 | 46 | 182 | 1.0 | 1.0 | 0.00 | 0.00 | 0.00 | 48 | 1007.2 |
| 20260505100015 | 46 | 182 | 0.0 | 0.0 | 0.00 | 0.00 | 0.00 | 48 | 1007.2 |
| 20260505095511 | 46 | 182 | 0.0 | 0.0 | 0.00 | 0.00 | 0.00 | 48 | 1007.4 |
| 20260505095008 | 46 | 182 | 0.0 | 0.0 | 0.00 | 0.00 | 0.00 | 48 | 1007.4 |
| 20260505094504 | 46 | 182 | 0.0 | 0.0 | 0.00 | 0.00 | 0.00 | 48 | 1007.7 |
| 20260505094000 | 47 | 182 | 0.0 | 0.0 | 0.00 | 0.00 | 0.00 | 48 | 1007.2 |
| 20260505093457 | 47 | 182 | 0.0 | 0.0 | 0.00 | 0.00 | 0.00 | 48 | 1007.3 |
| 20260505092954 | 47 | 182 | 0.0 | 0.0 | 0.00 | 0.00 | 0.00 | 49 | 1007.6 |
| 20260505092452 | 47 | 182 | 0.0 | 0.0 | 0.00 | 0.00 | 0.00 | 48 | 1007.4 |
| 20260505091949 | 47 | 182 | 0.0 | 0.0 | 0.00 | 0.00 | 0.00 | 48 | 1007.5 |
| 20260505091447 | 47 | 182 | 0.0 | 0.0 | 0.00 | 0.00 | 0.00 | 48 | 1007.3 |
| 20260505090945 | 47 | 182 | 0.0 | 0.0 | 0.00 | 0.00 | 0.00 | 48 | 1007.1 |
| 20260505090443 | 47 | 182 | 0.0 | 0.0 | 0.00 | 0.00 | 0.00 | 48 | 1006.8 |
| 20260505085939 | 47 | 182 | 0.0 | 0.0 | 0.00 | 0.00 | 0.00 | 49 | 1006.8 |
| 20260505085437 | 47 | 182 | 0.0 | 0.0 | 0.00 | 0.00 | 0.00 | 49 | 1006.6 |
| 20260505084936 | 47 | 182 | 0.0 | 0.0 | 0.00 | 0.00 | 0.00 | 49 | 1006.7 |
| 20260505084434 | 47 | 182 | 0.0 | 0.0 | 0.00 | 0.00 | 0.00 | 49 | 1006.5 |
| 20260505083931 | 47 | 182 | 0.0 | 0.0 | 0.00 | 0.00 | 0.00 | 49 | 1006.5 |
| 20260505083428 | 47 | 182 | 0.0 | 1.0 | 0.00 | 0.00 | 0.00 | 49 | 1006.3 |
| 20260505082924 | 47 | 182 | 0.0 | 0.0 | 0.00 | 0.00 | 0.00 | 49 | 1006.1 |
| 20260505082420 | 47 | 181 | 0.0 | 0.0 | 0.00 | 0.00 | 0.00 | 49 | 1006.0 |
| 20260505081918 | 48 | 181 | 0.0 | 0.0 | 0.00 | 0.00 | 0.00 | 49 | 1006.0 |
| 20260505081415 | 48 | 181 | 0.0 | 0.0 | 0.00 | 0.00 | 0.00 | 48 | 1005.8 |
| 20260505080911 | 48 | 182 | 0.0 | 0.0 | 0.00 | 0.00 | 0.00 | 48 | 1005.8 |
| 20260505080407 | 48 | 182 | 0.0 | 0.0 | 0.00 | 0.00 | 0.00 | 49 | 1005.3 |
| 20260505075902 | 48 | 182 | 0.0 | 0.0 | 0.00 | 0.00 | 0.00 | 49 | 1005.2 |
| 20260505075359 | 48 | 181 | 0.0 | 1.0 | 0.00 | 0.00 | 0.00 | 49 | 1005.2 |
| 20260505074857 | 49 | 182 | 0.0 | 0.0 | 0.00 | 0.00 | 0.00 | 50 | 1005.1 |
| 20260505074354 | 49 | 181 | 0.0 | 0.0 | 0.00 | 0.00 | 0.00 | 50 | 1005.3 |
| 20260505073851 | 49 | 182 | 0.0 | 0.0 | 0.00 | 0.00 | 0.00 | 48 | 1005.2 |
| 20260505073349 | 49 | 181 | 0.0 | 1.0 | 0.00 | 0.00 | 0.00 | 49 | 1005.0 |
| 20260505072846 | 50 | 182 | 0.0 | 0.0 | 0.00 | 0.00 | 0.00 | 50 | 1005.0 |
| 20260505072342 | 50 | 182 | 0.0 | 1.0 | 0.00 | 0.00 | 0.00 | 49 | 1005.1 |
| 20260505071838 | 50 | 181 | 1.0 | 1.0 | 0.00 | 0.00 | 0.00 | 49 | 1005.0 |
| 20260505071334 | 50 | 181 | 1.0 | 2.0 | 0.00 | 0.00 | 0.00 | 49 | 1005.1 |
| 20260505070833 | 50 | 181 | 1.0 | 2.0 | 0.00 | 0.00 | 0.00 | 49 | 1004.9 |
| 20260505070329 | 51 | 181 | 1.0 | 1.0 | 0.00 | 0.00 | 0.00 | 50 | 1004.8 |
| 20260505065824 | 51 | 181 | 0.0 | 1.0 | 0.00 | 0.00 | 0.00 | 49 | 1004.5 |
| 20260505065321 | 51 | 181 | 1.0 | 1.0 | 0.00 | 0.00 | 0.00 | 50 | 1004.5 |
| 20260505064818 | 51 | 181 | 1.0 | 1.0 | 0.00 | 0.00 | 0.00 | 49 | 1004.4 |
| 20260505064315 | 51 | 181 | 0.0 | 0.0 | 0.00 | 0.00 | 0.00 | 49 | 1004.3 |
| 20260505063814 | 52 | 182 | 0.0 | 0.0 | 0.00 | 0.00 | 0.00 | 49 | 1004.1 |
| 20260505063309 | 52 | 182 | 1.0 | 2.0 | 0.00 | 0.00 | 0.00 | 48 | 1004.1 |
| 20260505062806 | 52 | 181 | 1.0 | 1.0 | 0.00 | 0.00 | 0.00 | 49 | 1004.2 |
| 20260505062304 | 52 | 181 | 0.0 | 0.0 | 0.00 | 0.00 | 0.00 | 48 | 1004.2 |
| 20260505061800 | 53 | 181 | 0.0 | 1.0 | 0.00 | 0.00 | 0.00 | 49 | 1004.1 |
| 20260505061258 | 53 | 181 | 0.0 | 0.0 | 0.00 | 0.00 | 0.00 | 50 | 1004.1 |
| 20260505060755 | 53 | 181 | 0.0 | 0.0 | 0.00 | 0.00 | 0.00 | 50 | 1004.4 |
| 20260505060252 | 53 | 181 | 0.0 | 0.0 | 0.00 | 0.00 | 0.00 | 49 | 1004.3 |
| 20260505055747 | 54 | 181 | 0.0 | 0.0 | 0.00 | 0.00 | 0.00 | 49 | 1004.2 |
| 20260505055244 | 54 | 181 | 0.0 | 0.0 | 0.00 | 0.00 | 0.00 | 47 | 1004.0 |
| 20260505054741 | 54 | 181 | 0.0 | 0.0 | 0.00 | 0.00 | 0.00 | 47 | 1003.9 |
| 20260505054239 | 55 | 182 | 0.0 | 0.0 | 0.00 | 0.00 | 0.00 | 47 | 1004.1 |
| 20260505053737 | 55 | 182 | 0.0 | 2.0 | 0.00 | 0.00 | 0.00 | 46 | 1003.7 |
| 20260505053233 | 55 | 182 | 0.0 | 0.0 | 0.00 | 0.00 | 0.00 | 46 | 1003.5 |